Location: C�an Torras
(41.5052°N, 1.9280°E)
Time: 18:02:32
(UTC+00:00)

Cosmos 1726 Rocket - Pass Details

Date: 20 January 2021
Orbit: 604 x 628 km, 82.5° (Epoch: 03 March)

Event Time Altitude Azimuth Distance (km) Brightness Sun altitude
Rises 17:38:24 0° 355° (N) 2,881 6.8 -8.6°
Reaches altitude 10° 17:40:39 10° 358° (N) 1,976 6.0 -9.0°
Maximum altitude 17:44:59 64° 81° (E) 683 3.5 -9.8°
Drops below altitude 10° 17:49:20 10° 163° (SSE) 1,976 6.2 -10.5°
Sets 17:51:34 0° 166° (SSE) 2,881 7.0 -10.9°
